When you browse on this site, cookies collect data to enhance your experience and personalize the content and advertising you see.
Visit our Privacy Policy to learn more. By continuing to use the site, you agree to this use of cookies and data.
  • En España
  • Lista de países
  • Para 7 días
  • Temperatura del agua
  • Mapa Satelital
  • El tiempo en el mapa
  • Informadores
  • user-avatar
    Iniciar sesión

    Tiempo cada hora Mérida

    Hoy, 18 Febrero, Lunes

    Tiempo Temperatura Precipitaciones Viento Presión Humedad
    00:00 +16°C° 0.3 mm 1 mps 593 mmHg 89%
    01:00 +16°C° 0.3 mm 1 mps 593 mmHg 90%
    02:00 +15°C° 0.1 mm 1 mps 593 mmHg 90%
    03:00 +15°C° 0.1 mm 1 mps 593 mmHg 90%
    04:00 +15°C° 0.1 mm 1 mps 593 mmHg 90%
    05:00 +15°C° 0.1 mm 1 mps 593 mmHg 89%
    06:00 +15°C° 0.1 mm 1 mps 593 mmHg 88%
    07:00 +16°C° 0.1 mm 1 mps 594 mmHg 87%
    08:00 +16°C° 0.3 mm 1 mps 595 mmHg 86%
    09:00 +18°C° 0.3 mm 1 mps 595 mmHg 84%
    10:00 +18°C° 0.3 mm 1 mps 596 mmHg 83%
    11:00 +18°C° 0.5 mm 1 mps 595 mmHg 84%
    12:00 +18°C° 0.5 mm 1 mps 595 mmHg 84%
    13:00 +18°C° 0.5 mm 1 mps 594 mmHg 85%
    14:00 +18°C° 0.8 mm 1 mps 593 mmHg 86%
    15:00 +18°C° 0.8 mm 1 mps 593 mmHg 87%
    16:00 +18°C° 0.8 mm 1 mps 592 mmHg 87%
    17:00 +18°C° 0.4 mm 1 mps 593 mmHg 88%
    18:00 +16°C° 0.4 mm 1 mps 593 mmHg 88%
    19:00 +16°C° 0.4 mm 1 mps 593 mmHg 89%
    20:00 +16°C° 0.2 mm 1 mps 593 mmHg 89%
    21:00 +16°C° 0.2 mm 1 mps 593 mmHg 89%
    22:00 +15°C° 0.2 mm 1 mps 594 mmHg 89%
    23:00 +15°C° 0.1 mm 1 mps 593 mmHg 90%

    Mañana, 19 Febrero, Martes

    Tiempo Temperatura Precipitaciones Viento Presión Humedad
    00:00 +15°C° 0.1 mm 1 mps 593 mmHg 90%
    01:00 +14°C° 0.1 mm 1 mps 593 mmHg 91%
    02:00 +14°C° 0 mm 1 mps 593 mmHg 91%
    03:00 +14°C° 0 mm 1 mps 592 mmHg 91%
    04:00 +14°C° 0 mm 1 mps 592 mmHg 91%
    05:00 +15°C° 0 mm 1 mps 593 mmHg 89%
    06:00 +15°C° 0 mm 1 mps 593 mmHg 88%
    07:00 +15°C° 0 mm 1 mps 594 mmHg 86%
    08:00 +16°C° 0.1 mm 1 mps 595 mmHg 83%
    09:00 +18°C° 0.1 mm 1 mps 596 mmHg 80%
    10:00 +18°C° 0.1 mm 2 mps 596 mmHg 77%
    11:00 +19°C° 0.5 mm 1 mps 595 mmHg 78%
    12:00 +19°C° 0.5 mm 1 mps 595 mmHg 79%
    13:00 +19°C° 0.5 mm 1 mps 594 mmHg 80%
    14:00 +19°C° 1 mm 1 mps 593 mmHg 81%
    15:00 +19°C° 1 mm 1 mps 593 mmHg 82%
    16:00 +19°C° 1 mm 1 mps 592 mmHg 83%
    17:00 +18°C° 0.9 mm 1 mps 592 mmHg 84%
    18:00 +16°C° 0.9 mm 1 mps 592 mmHg 86%
    19:00 +16°C° 0.9 mm 1 mps 592 mmHg 87%
    20:00 +16°C° 0.7 mm 1 mps 593 mmHg 87%
    21:00 +16°C° 0.7 mm 1 mps 593 mmHg 86%
    22:00 +16°C° 0.7 mm 1 mps 593 mmHg 85%
    23:00 +15°C° 0.5 mm 1 mps 593 mmHg 85%

    Pasado mañana, 20 Febrero, Miércoles

    Tiempo Temperatura Precipitaciones Viento Presión Humedad
    00:00 +15°C° 0.5 mm 1 mps 593 mmHg 85%
    01:00 +15°C° 0.5 mm 1 mps 592 mmHg 86%
    02:00 +15°C° 0.7 mm 1 mps 592 mmHg 85%
    03:00 +15°C° 0.7 mm 1 mps 592 mmHg 85%
    04:00 +15°C° 0.7 mm 1 mps 592 mmHg 84%
    05:00 +15°C° 1.1 mm 1 mps 592 mmHg 84%
    06:00 +15°C° 1.1 mm 1 mps 593 mmHg 83%
    07:00 +15°C° 1.1 mm 1 mps 593 mmHg 83%
    08:00 +16°C° 1.3 mm 1 mps 594 mmHg 81%
    09:00 +18°C° 1.3 mm 1 mps 595 mmHg 80%
    10:00 +18°C° 1.3 mm 1 mps 595 mmHg 78%
    11:00 +18°C° 2.4 mm 1 mps 595 mmHg 79%
    12:00 +18°C° 2.4 mm 1 mps 594 mmHg 80%
    13:00 +18°C° 2.4 mm 1 mps 593 mmHg 81%
    14:00 +18°C° 2 mm 1 mps 592 mmHg 81%
    15:00 +18°C° 2 mm 1 mps 592 mmHg 81%
    16:00 +18°C° 2 mm 1 mps 591 mmHg 81%
    17:00 +18°C° 0.8 mm 1 mps 591 mmHg 83%
    18:00 +16°C° 0.8 mm 1 mps 592 mmHg 84%
    19:00 +16°C° 0.8 mm 1 mps 592 mmHg 85%
    20:00 +15°C° 0.3 mm 1 mps 592 mmHg 85%
    21:00 +15°C° 0.3 mm 1 mps 592 mmHg 84%
    22:00 +15°C° 0.3 mm 1 mps 593 mmHg 84%
    23:00 +15°C° 0.2 mm 1 mps 592 mmHg 84%

    21 Febrero, Jueves

    Tiempo Temperatura Precipitaciones Viento Presión Humedad
    00:00 +14°C° 0.2 mm 1 mps 592 mmHg 85%
    01:00 +14°C° 0.2 mm 1 mps 592 mmHg 85%
    02:00 +14°C° 0.2 mm 1 mps 592 mmHg 85%
    03:00 +14°C° 0.2 mm 2 mps 591 mmHg 85%
    04:00 +14°C° 0.2 mm 2 mps 591 mmHg 85%
    05:00 +14°C° 0.1 mm 2 mps 592 mmHg 83%
    06:00 +15°C° 0.1 mm 2 mps 593 mmHg 81%
    07:00 +15°C° 0.1 mm 2 mps 594 mmHg 79%
    08:00 +18°C° 0.2 mm 1 mps 595 mmHg 75%
    09:00 +20°C° 0.2 mm 1 mps 596 mmHg 71%
    10:00 +21°C° 0.2 mm 1 mps 597 mmHg 66%
    11:00 +21°C° 1.1 mm 1 mps 596 mmHg 69%
    12:00 +21°C° 1.1 mm 1 mps 595 mmHg 72%
    13:00 +20°C° 1.1 mm 1 mps 594 mmHg 75%
    14:00 +20°C° 1.6 mm 1 mps 593 mmHg 75%
    15:00 +20°C° 1.6 mm 1 mps 593 mmHg 74%
    16:00 +20°C° 1.6 mm 1 mps 592 mmHg 74%
    17:00 +19°C° 0.8 mm 1 mps 592 mmHg 77%
    18:00 +18°C° 0.8 mm 1 mps 592 mmHg 79%
    19:00 +16°C° 0.8 mm 1 mps 592 mmHg 82%
    20:00 +16°C° 0.4 mm 1 mps 592 mmHg 81%
    21:00 +16°C° 0.4 mm 1 mps 593 mmHg 80%
    22:00 +15°C° 0.4 mm 1 mps 593 mmHg 79%
    23:00 +15°C° 0.1 mm 1 mps 593 mmHg 79%

    22 Febrero, Viernes

    Tiempo Temperatura Precipitaciones Viento Presión Humedad
    00:00 +14°C° 0.1 mm 1 mps 592 mmHg 78%
    01:00 +14°C° 0.1 mm 2 mps 592 mmHg 78%
    02:00 +14°C° 0 mm 2 mps 592 mmHg 79%
    03:00 +14°C° 0 mm 2 mps 592 mmHg 79%
    04:00 +14°C° 0 mm 2 mps 591 mmHg 80%
    05:00 +14°C° 0 mm 2 mps 592 mmHg 78%
    06:00 +15°C° 0 mm 2 mps 593 mmHg 76%
    07:00 +16°C° 0 mm 2 mps 594 mmHg 74%
    08:00 +17°C° 0 mm 2 mps 595 mmHg 70%
    09:00 +19°C° 0 mm 2 mps 596 mmHg 66%
    10:00 +22°C° 0 mm 1 mps 597 mmHg 62%
    11:00 +22°C° 0.3 mm 1 mps 596 mmHg 66%
    12:00 +21°C° 0.3 mm 1 mps 595 mmHg 69%
    13:00 +20°C° 0.3 mm 2 mps 594 mmHg 73%
    14:00 +21°C° 0.6 mm 1 mps 593 mmHg 73%
    15:00 +20°C° 0.6 mm 1 mps 593 mmHg 74%
    16:00 +20°C° 0.6 mm 1 mps 592 mmHg 74%
    17:00 +19°C° 0.4 mm 1 mps 593 mmHg 79%
    18:00 +18°C° 0.4 mm 1 mps 593 mmHg 84%
    19:00 +15°C° 0.4 mm 0 mps 593 mmHg 88%
    20:00 +15°C° 0.2 mm 0 mps 593 mmHg 87%
    21:00 +16°C° 0.2 mm 1 mps 593 mmHg 87%
    22:00 +16°C° 0.2 mm 1 mps 594 mmHg 86%
    23:00 +16°C° 0.1 mm 1 mps 593 mmHg 85%

    23 Febrero, Sábado

    Tiempo Temperatura Precipitaciones Viento Presión Humedad
    00:00 +16°C° 0.1 mm 1 mps 593 mmHg 84%
    01:00 +16°C° 0.1 mm 1 mps 593 mmHg 83%
    02:00 +15°C° 0.2 mm 1 mps 593 mmHg 84%
    03:00 +15°C° 0.2 mm 1 mps 592 mmHg 84%
    04:00 +14°C° 0.2 mm 1 mps 592 mmHg 85%
    05:00 +15°C° 0 mm 2 mps 593 mmHg 81%
    06:00 +15°C° 0 mm 2 mps 594 mmHg 78%
    07:00 +16°C° 0 mm 2 mps 594 mmHg 75%
    08:00 +17°C° 0 mm 2 mps 595 mmHg 72%
    09:00 +19°C° 0 mm 1 mps 596 mmHg 70%
    10:00 +21°C° 0 mm 1 mps 597 mmHg 67%
    11:00 +20°C° 0.3 mm 1 mps 596 mmHg 69%
    12:00 +20°C° 0.3 mm 1 mps 595 mmHg 72%
    13:00 +20°C° 0.3 mm 1 mps 594 mmHg 75%
    14:00 +20°C° 0.2 mm 1 mps 593 mmHg 73%
    15:00 +20°C° 0.2 mm 1 mps 593 mmHg 71%
    16:00 +20°C° 0.2 mm 1 mps 592 mmHg 70%
    17:00 +19°C° 0.2 mm 1 mps 592 mmHg 75%
    18:00 +18°C° 0.2 mm 1 mps 592 mmHg 80%
    19:00 +15°C° 0.2 mm 0 mps 592 mmHg 85%
    20:00 +14°C° 0.1 mm 0 mps 592 mmHg 85%
    21:00 +14°C° 0.1 mm 0 mps 592 mmHg 85%
    22:00 +15°C° 0.1 mm 1 mps 593 mmHg 85%
    23:00 +14°C° 0 mm 1 mps 592 mmHg 82%
    Mostrar más